Precipitable_Water
0.93 0.89 0.89 0.86 0.80 0.76 0.71 0.67 0.70 0.69 0.71 0.60 0.52 0.47 0.44 0.39 0.41 0.44 0.44 0.43 0.44 0.43
0.89 0.85 0.82 0.81 0.79 0.74 0.70 0.70 0.74 0.68 0.61 0.57 0.56 0.50 0.45 0.44 0.42 0.42 0.43 0.42 0.41 0.39
0.83 0.83 0.81 0.78 0.74 0.71 0.72 0.68 0.69 0.65 0.65 0.58 0.51 0.48 0.46 0.45 0.44 0.42 0.43 0.42 0.40 0.37
0.82 0.81 0.81 0.76 0.72 0.67 0.69 0.68 0.72 0.68 0.63 0.56 0.48 0.47 0.48 0.49 0.44 0.41 0.42 0.45 0.41 0.39
0.77 0.80 0.77 0.68 0.70 0.69 0.71 0.74 0.65 0.62 0.58 0.53 0.49 0.47 0.48 0.47 0.43 0.44 0.43 0.43 0.41 0.37
0.73 0.70 0.66 0.66 0.65 0.69 0.74 0.63 0.61 0.58 0.55 0.52 0.49 0.49 0.48 0.45 0.45 0.44 0.45 0.44 0.39 0.35
0.77 0.77 0.73 0.72 0.73 0.71 0.63 0.61 0.60 0.57 0.52 0.49 0.50 0.49 0.45 0.45 0.44 0.45 0.43 0.41 0.37 0.33
0.80 0.76 0.73 0.70 0.74 0.67 0.68 0.61 0.61 0.53 0.50 0.50 0.48 0.46 0.45 0.45 0.44 0.42 0.39 0.39 0.33 0.28
0.77 0.74 0.73 0.69 0.71 0.65 0.64 0.64 0.57 0.52 0.50 0.46 0.45 0.45 0.45 0.43 0.41 0.40 0.36 0.32 0.29 0.29
0.72 0.68 0.68 0.71 0.65 0.65 0.62 0.59 0.54 0.51 0.47 0.43 0.43 0.42 0.40 0.40 0.37 0.35 0.33 0.30 0.29 0.28
0.69 0.67 0.66 0.66 0.63 0.61 0.60 0.55 0.50 0.45 0.41 0.37 0.36 0.37 0.37 0.35 0.34 0.33 0.32 0.31 0.30 0.29
0.67 0.64 0.66 0.66 0.63 0.60 0.54 0.47 0.41 0.37 0.33 0.32 0.31 0.34 0.35 0.34 0.33 0.32 0.31 0.31 0.31 0.30
0.68 0.69 0.66 0.63 0.56 0.50 0.43 0.37 0.32 0.30 0.30 0.28 0.27 0.31 0.32 0.32 0.32 0.32 0.30 0.30 0.30 0.28
0.70 0.66 0.59 0.51 0.45 0.37 0.33 0.30 0.28 0.26 0.26 0.27 0.28 0.29 0.30 0.31 0.30 0.30 0.29 0.28 0.28 0.26
Wind_Speed
22 23 23 24 25 26 27 28 30 32 34 34 36 36 37 36 37 36 37 38 40 43
21 22 23 24 26 28 29 31 32 34 36 37 36 37 38 38 39 39 40 41 43 45
23 25 26 27 28 29 31 34 34 38 38 37 37 38 38 39 41 41 42 43 44 44
26 27 28 29 31 32 33 36 38 39 36 39 39 39 40 42 42 42 43 44 44 43
26 28 29 30 31 33 36 39 38 37 39 39 39 41 43 44 44 44 46 45 43 41
27 29 30 30 32 35 37 37 35 37 39 39 42 44 46 45 45 45 44 43 41 41
29 29 31 32 33 36 33 34 36 38 39 41 44 46 44 44 43 43 41 41 41 41
28 29 30 32 32 35 34 37 39 41 43 45 46 46 44 43 42 41 41 41 41 40
28 29 30 32 32 35 38 39 40 43 46 46 45 43 42 42 41 41 41 41 40 39
29 30 32 33 35 37 38 40 42 45 45 44 43 42 41 41 41 40 40 40 40 39
29 29 31 33 34 37 40 42 43 42 42 43 42 41 40 39 39 39 39 39 38 37
27 29 32 34 38 42 41 40 39 41 42 42 41 39 39 38 39 39 38 37 35 34
29 32 36 39 39 38 37 39 40 40 40 41 40 38 39 38 37 37 36 34 33 30
33 36 37 37 36 37 38 39 39 40 40 40 38 39 38 37 36 35 34 32 30 28
Wind_Direction
275 279 282 284 287 290 291 295 297 299 304 303 303 304 306 305 305 305 304 304 304 304
277 279 284 286 289 291 291 296 296 300 300 302 302 303 303 303 304 303 304 304 304 305
278 281 283 286 289 289 291 296 293 300 299 300 301 301 302 302 304 302 303 304 305 306
279 281 283 287 290 291 292 296 296 299 297 300 300 300 302 302 302 302 303 304 305 304
279 281 284 287 289 292 294 296 296 297 298 299 300 300 301 302 301 301 303 303 303 303
282 284 286 289 291 295 296 297 297 299 300 300 301 302 303 302 301 301 302 302 302 302
283 285 289 291 294 299 297 299 299 301 301 301 303 303 302 302 302 302 302 302 302 303
285 286 292 295 291 300 296 300 299 300 302 303 303 303 301 300 300 301 301 302 303 304
286 290 291 298 295 299 298 299 301 302 303 304 304 302 301 300 300 301 301 302 303 304
284 289 292 295 297 302 302 301 302 302 303 303 303 302 300 300 301 301 302 303 304 304
286 291 296 298 299 302 303 303 303 304 305 305 304 302 301 301 301 302 303 303 303 303
290 293 297 298 298 302 303 304 305 306 306 306 306 304 302 302 302 303 303 304 304 303
293 295 297 300 302 303 303 305 306 307 308 308 307 305 304 303 303 303 303 304 303 303
296 298 300 301 302 304 304 306 307 308 308 308 307 307 306 304 304 302 301 301 301 301